Location: Igri�s
(42.2144°N, 0.4320°W)
Time: 17:20:01
(UTC+00:00)

Cosmos 1727 Rocket - Pass Details

Date: 13 August 2020
Orbit: 961 x 996 km, 82.9° (Epoch: 17 September)

Event Time Altitude Azimuth Distance (km) Brightness Sun altitude
Rises 19:41:12 0° 351° (N) 3,725 7.6 -7.0°
Reaches altitude 10° 19:43:44 10° 350° (N) 2,772 6.9 -7.4°
Maximum altitude 19:50:06 80° 265° (W) 1,014 4.2 -8.5°
Drops below altitude 10° 19:56:25 10° 179° (S) 2,745 6.1 -9.5°
Sets 19:58:55 0° 178° (S) 3,686 6.7 -9.9°
